Time,TemperatureF,DewpointF,PressureIn,WindDirection,WindDirectionDegrees,WindSpeedMPH,WindSpeedGustMPH,Humidity,HourlyPrecipIn,Conditions,Clouds,dailyrainin,SoftwareType,DateUTC
2013-02-18 00:00:00,10.6,-1.0,29.75,West,270,4.5,17.0,59,0.00,,,10.52,WUHU21623XXSP,2013-02-18 05:00:00,
2013-02-18 00:05:00,10.4,-1.1,29.75,West,270,5.1,20.4,59,0.00,,,0.00,WUHU21623XXSP,2013-02-18 05:05:00,
2013-02-18 00:10:00,10.4,-1.1,29.76,SW,225,3.4,20.4,59,0.00,,,0.00,WUHU21623XXSP,2013-02-18 05:10:00,
2013-02-18 00:15:00,10.2,-0.9,29.76,NNE,22,2.0,15.9,60,0.00,,,0.00,WUHU21623XXSP,2013-02-18 05:15:00,
2013-02-18 00:20:00,10.2,-1.3,29.76,West,270,7.2,15.9,59,0.00,,,0.00,WUHU21623XXSP,2013-02-18 05:20:00,
2013-02-18 00:25:00,10.2,-1.3,29.76,North,0,5.4,15.0,59,0.00,,,0.00,WUHU21623XXSP,2013-02-18 05:25:00,
2013-02-18 00:30:00,10.2,-1.3,29.76,SSW,202,7.2,10.7,59,0.00,,,0.00,WUHU21623XXSP,2013-02-18 05:30:00,
2013-02-18 00:35:00,10.2,-0.9,29.76,West,270,2.5,15.0,60,0.00,,,0.00,WUHU21623XXSP,2013-02-18 05:35:00,
2013-02-18 00:40:00,10.2,-0.9,29.76,NW,315,6.9,15.0,60,0.00,,,0.00,WUHU21623XXSP,2013-02-18 05:40:00,
2013-02-18 00:45:00,10.2,-0.9,29.77,West,270,0.0,12.3,60,0.00,,,0.00,WUHU21623XXSP,2013-02-18 05:45:00,
2013-02-18 00:50:00,10.2,-1.3,29.77,SW,225,0.0,12.3,59,0.00,,,0.00,WUHU21623XXSP,2013-02-18 05:50:00,
2013-02-18 00:55:00,10.0,-1.1,29.77,NW,315,10.3,14.1,60,0.00,,,0.00,WUHU21623XXSP,2013-02-18 05:55:00,
2013-02-18 01:00:00,10.0,-1.1,29.78,West,270,8.1,15.9,60,0.00,,,0.00,WUHU21623XXSP,2013-02-18 06:00:00,
2013-02-18 01:05:00,10.0,-1.1,29.77,West,270,2.9,15.9,60,0.00,,,0.00,WUHU21623XXSP,2013-02-18 06:05:00,
2013-02-18 01:10:00,10.0,-0.8,29.77,SSW,202,13.6,13.6,61,0.00,,,0.00,WUHU21623XXSP,2013-02-18 06:10:00,
2013-02-18 01:15:00,10.0,-1.1,29.78,WNW,292,8.7,18.3,60,0.00,,,0.00,WUHU21623XXSP,2013-02-18 06:15:00,
2013-02-18 01:20:00,9.9,-1.0,29.78,NW,315,13.9,18.3,61,0.00,,,0.00,WUHU21623XXSP,2013-02-18 06:20:00,
2013-02-18 01:25:00,10.0,-0.8,29.78,WSW,247,0.0,15.4,61,0.00,,,0.00,WUHU21623XXSP,2013-02-18 06:25:00,
2013-02-18 01:30:00,10.0,-0.8,29.78,West,270,4.9,17.9,61,0.00,,,0.00,WUHU21623XXSP,2013-02-18 06:30:00,
2013-02-18 01:35:00,9.7,-1.2,29.79,NW,315,3.1,19.7,61,0.00,,,0.00,WUHU21623XXSP,2013-02-18 06:35:00,
2013-02-18 01:40:00,9.7,-1.2,29.79,WNW,292,7.4,24.2,61,0.00,,,0.00,WUHU21623XXSP,2013-02-18 06:40:00,
2013-02-18 01:45:00,9.7,-1.2,29.79,SW,225,0.0,24.2,61,0.00,,,0.00,WUHU21623XXSP,2013-02-18 06:45:00,
2013-02-18 01:50:00,9.7,-1.2,29.79,SSW,202,4.7,12.5,61,0.00,,,0.00,WUHU21623XXSP,2013-02-18 06:50:00,
2013-02-18 01:55:00,9.7,-1.2,29.79,WNW,292,6.9,12.5,61,0.00,,,0.00,WUHU21623XXSP,2013-02-18 06:55:00,
2013-02-18 02:00:00,9.7,-1.2,29.79,WSW,247,0.0,9.8,61,0.00,,,0.00,WUHU21623XXSP,2013-02-18 07:00:00,
2013-02-18 02:05:00,9.7,-1.2,29.79,WNW,292,7.6,8.1,61,0.00,,,0.00,WUHU21623XXSP,2013-02-18 07:05:00,
2013-02-18 02:10:00,9.7,-0.5,29.79,WSW,247,0.0,7.6,63,0.00,,,0.00,WUHU21623XXSP,2013-02-18 07:10:00,
2013-02-18 02:15:00,10.0,-0.5,29.80,NNW,337,1.6,16.3,62,0.00,,,0.00,WUHU21623XXSP,2013-02-18 07:15:00,
2013-02-18 02:20:00,9.7,-1.2,29.80,SSW,202,0.0,16.3,61,0.00,,,0.00,WUHU21623XXSP,2013-02-18 07:20:00,
2013-02-18 02:25:00,9.7,-1.2,29.80,SE,135,4.3,7.8,61,0.00,,,0.00,WUHU21623XXSP,2013-02-18 07:25:00,
2013-02-18 02:30:00,9.7,-1.2,29.81,SSW,202,0.0,8.5,61,0.00,,,0.00,WUHU21623XXSP,2013-02-18 07:30:00,
2013-02-18 02:35:00,9.7,-1.2,29.81,WNW,292,0.0,8.5,61,0.00,,,0.00,WUHU21623XXSP,2013-02-18 07:35:00,
2013-02-18 02:40:00,9.7,-1.2,29.82,SSW,202,1.1,14.1,61,0.00,,,0.00,WUHU21623XXSP,2013-02-18 07:40:00,
2013-02-18 02:45:00,9.7,-1.5,29.82,WNW,292,0.0,14.1,60,0.00,,,0.00,WUHU21623XXSP,2013-02-18 07:45:00,
2013-02-18 02:50:00,9.7,-1.2,29.82,WNW,292,0.0,12.3,61,0.00,,,0.00,WUHU21623XXSP,2013-02-18 07:50:00,
2013-02-18 02:55:00,9.7,-1.5,29.82,WNW,292,0.0,12.3,60,0.00,,,0.00,WUHU21623XXSP,2013-02-18 07:55:00,
2013-02-18 03:00:00,9.7,-1.5,29.82,South,180,0.0,8.3,60,0.00,,,0.00,WUHU21623XXSP,2013-02-18 08:00:00,
2013-02-18 03:05:00,9.7,-1.5,29.82,SW,225,0.0,10.5,60,0.00,,,0.00,WUHU21623XXSP,2013-02-18 08:05:00,
2013-02-18 03:10:00,9.5,-1.7,29.82,WNW,292,2.7,10.5,60,0.00,,,0.00,WUHU21623XXSP,2013-02-18 08:10:00,
2013-02-18 03:15:00,9.5,-1.7,29.83,WSW,247,7.8,9.4,60,0.00,,,0.00,WUHU21623XXSP,2013-02-18 08:15:00,
2013-02-18 03:20:00,9.5,-1.7,29.83,NNW,337,3.8,11.6,60,0.00,,,0.00,WUHU21623XXSP,2013-02-18 08:20:00,
2013-02-18 03:25:00,9.5,-1.7,29.83,East,90,2.5,11.6,60,0.00,,,0.00,WUHU21623XXSP,2013-02-18 08:25:00,
2013-02-18 03:30:00,9.3,-1.5,29.84,West,270,0.0,11.0,61,0.00,,,0.00,WUHU21623XXSP,2013-02-18 08:30:00,
2013-02-18 03:35:00,9.1,-1.7,29.84,WSW,247,4.5,11.0,61,0.00,,,0.00,WUHU21623XXSP,2013-02-18 08:35:00,
2013-02-18 03:40:00,9.1,-1.7,29.84,WSW,247,0.0,10.5,61,0.00,,,0.00,WUHU21623XXSP,2013-02-18 08:40:00,
2013-02-18 03:45:00,9.1,-1.7,29.84,South,180,5.8,10.5,61,0.00,,,0.00,WUHU21623XXSP,2013-02-18 08:45:00,
2013-02-18 03:50:00,9.1,-1.7,29.84,West,270,9.4,17.7,61,0.00,,,0.00,WUHU21623XXSP,2013-02-18 08:50:00,
2013-02-18 03:55:00,9.3,-1.5,29.85,WNW,292,6.0,17.7,61,0.00,,,0.00,WUHU21623XXSP,2013-02-18 08:55:00,
2013-02-18 04:00:00,9.3,-1.8,29.85,SSW,202,2.7,15.7,60,0.00,,,0.00,WUHU21623XXSP,2013-02-18 09:00:00,
2013-02-18 04:05:00,9.1,-2.0,29.85,WNW,292,6.0,15.7,60,0.00,,,0.00,WUHU21623XXSP,2013-02-18 09:05:00,
2013-02-18 04:10:00,9.1,-2.0,29.85,WNW,292,10.7,10.7,60,0.00,,,0.00,WUHU21623XXSP,2013-02-18 09:10:00,
2013-02-18 04:15:00,9.1,-1.7,29.86,South,180,11.2,11.2,61,0.00,,,0.00,WUHU21623XXSP,2013-02-18 09:15:00,
2013-02-18 04:20:00,9.3,-1.5,29.87,NW,315,10.1,14.1,61,0.00,,,0.00,WUHU21623XXSP,2013-02-18 09:20:00,
2013-02-18 04:25:00,9.3,-1.5,29.87,West,270,0.0,14.1,61,0.00,,,0.00,WUHU21623XXSP,2013-02-18 09:25:00,
2013-02-18 04:30:00,9.3,-1.5,29.87,SW,225,5.6,10.7,61,0.00,,,0.00,WUHU21623XXSP,2013-02-18 09:30:00,
2013-02-18 04:35:00,9.3,-1.5,29.87,WSW,247,2.0,11.4,61,0.00,,,0.00,WUHU21623XXSP,2013-02-18 09:35:00,
2013-02-18 04:40:00,9.1,-1.7,29.88,WSW,247,0.0,11.4,61,0.00,,,0.00,WUHU21623XXSP,2013-02-18 09:40:00,
2013-02-18 04:45:00,9.1,-1.7,29.88,WSW,247,0.0,5.4,61,0.00,,,0.00,WUHU21623XXSP,2013-02-18 09:45:00,
2013-02-18 04:50:00,9.1,-1.7,29.89,NNW,337,0.0,8.3,61,0.00,,,0.00,WUHU21623XXSP,2013-02-18 09:50:00,
2013-02-18 04:55:00,9.1,-1.7,29.88,WNW,292,0.0,11.2,61,0.00,,,0.00,WUHU21623XXSP,2013-02-18 09:55:00,
2013-02-18 05:00:00,9.1,-1.7,29.89,WNW,292,6.5,11.2,61,0.00,,,0.00,WUHU21623XXSP,2013-02-18 10:00:00,
2013-02-18 05:05:00,9.1,-1.7,29.89,NW,315,2.7,11.2,61,0.00,,,0.00,WUHU21623XXSP,2013-02-18 10:05:00,
2013-02-18 05:10:00,9.1,-1.7,29.89,West,270,0.0,11.2,61,0.00,,,0.00,WUHU21623XXSP,2013-02-18 10:10:00,
2013-02-18 05:15:00,9.1,-1.7,29.89,West,270,6.7,23.9,61,0.00,,,0.00,WUHU21623XXSP,2013-02-18 10:15:00,
2013-02-18 05:20:00,9.3,-1.5,29.90,SSW,202,0.0,23.9,61,0.00,,,0.00,WUHU21623XXSP,2013-02-18 10:20:00,
2013-02-18 05:25:00,9.3,-1.5,29.90,WNW,292,0.0,18.1,61,0.00,,,0.00,WUHU21623XXSP,2013-02-18 10:25:00,
2013-02-18 05:30:00,9.3,-1.5,29.90,WSW,247,3.4,12.5,61,0.00,,,0.00,WUHU21623XXSP,2013-02-18 10:30:00,
2013-02-18 05:35:00,9.3,-1.5,29.89,SW,225,0.0,10.7,61,0.00,,,0.00,WUHU21623XXSP,2013-02-18 10:35:00,
2013-02-18 05:40:00,9.1,-1.7,29.90,West,270,0.0,9.8,61,0.00,,,0.00,WUHU21623XXSP,2013-02-18 10:40:00,
2013-02-18 05:45:00,9.1,-1.7,29.90,SW,225,0.0,11.0,61,0.00,,,0.00,WUHU21623XXSP,2013-02-18 10:45:00,
2013-02-18 05:50:00,9.3,-1.5,29.90,WNW,292,0.0,11.0,61,0.00,,,0.00,WUHU21623XXSP,2013-02-18 10:50:00,
2013-02-18 05:55:00,9.1,-1.7,29.91,South,180,2.7,11.0,61,0.00,,,0.00,WUHU21623XXSP,2013-02-18 10:55:00,
2013-02-18 06:00:00,9.1,-2.0,29.91,WNW,292,0.0,21.0,60,0.00,,,0.00,WUHU21623XXSP,2013-02-18 11:00:00,
2013-02-18 06:05:00,9.1,-1.7,29.92,NW,315,12.8,21.0,61,0.00,,,0.00,WUHU21623XXSP,2013-02-18 11:05:00,
2013-02-18 06:10:00,9.1,-1.7,29.92,SSW,202,0.0,12.8,61,0.00,,,0.00,WUHU21623XXSP,2013-02-18 11:10:00,
2013-02-18 06:15:00,9.0,-1.9,29.92,SW,225,3.4,8.3,61,0.00,,,0.00,WUHU21623XXSP,2013-02-18 11:15:00,
2013-02-18 06:20:00,8.8,-2.1,29.93,SW,225,4.3,8.1,61,0.00,,,0.00,WUHU21623XXSP,2013-02-18 11:20:00,
2013-02-18 06:25:00,8.6,-2.2,29.93,West,270,0.0,9.4,61,0.00,,,0.00,WUHU21623XXSP,2013-02-18 11:25:00,
2013-02-18 06:30:00,8.4,-2.4,29.93,West,270,0.9,9.4,61,0.00,,,0.00,WUHU21623XXSP,2013-02-18 11:30:00,
2013-02-18 06:35:00,8.6,-2.2,29.93,West,270,0.0,12.8,61,0.00,,,0.00,WUHU21623XXSP,2013-02-18 11:35:00,
2013-02-18 06:40:00,8.8,-2.1,29.93,NNW,337,13.2,18.8,61,0.00,,,0.00,WUHU21623XXSP,2013-02-18 11:40:00,
2013-02-18 06:45:00,9.0,-1.9,29.94,West,270,10.5,18.8,61,0.00,,,0.00,WUHU21623XXSP,2013-02-18 11:45:00,
2013-02-18 06:50:00,9.1,-1.7,29.94,West,270,0.0,16.6,61,0.00,,,0.00,WUHU21623XXSP,2013-02-18 11:50:00,
2013-02-18 06:55:00,9.1,-2.0,29.94,WNW,292,0.0,16.6,60,0.00,,,0.00,WUHU21623XXSP,2013-02-18 11:55:00,
2013-02-18 07:00:00,9.1,-2.0,29.94,WNW,292,6.0,12.5,60,0.00,,,0.00,WUHU21623XXSP,2013-02-18 12:00:00,
2013-02-18 07:05:00,9.1,-2.0,29.95,West,270,3.1,13.9,60,0.00,,,0.00,WUHU21623XXSP,2013-02-18 12:05:00,
2013-02-18 07:10:00,9.1,-2.0,29.95,West,270,4.7,17.2,60,0.00,,,0.00,WUHU21623XXSP,2013-02-18 12:10:00,
2013-02-18 07:15:00,9.5,-1.7,29.95,WSW,247,0.0,17.2,60,0.00,,,0.00,WUHU21623XXSP,2013-02-18 12:15:00,
2013-02-18 07:20:00,9.7,-1.5,29.96,NNW,337,0.0,12.8,60,0.00,,,0.00,WUHU21623XXSP,2013-02-18 12:20:00,
2013-02-18 07:25:00,9.7,-1.5,29.95,West,270,5.4,12.8,60,0.00,,,0.00,WUHU21623XXSP,2013-02-18 12:25:00,
2013-02-18 07:30:00,9.7,-1.9,29.95,NE,45,4.9,8.9,59,0.00,,,0.00,WUHU21623XXSP,2013-02-18 12:30:00,
2013-02-18 07:35:00,9.7,-1.9,29.95,WSW,247,0.0,9.2,59,0.00,,,0.00,WUHU21623XXSP,2013-02-18 12:35:00,
2013-02-18 07:40:00,10.0,-1.5,29.96,NW,315,3.1,12.5,59,0.00,,,0.00,WUHU21623XXSP,2013-02-18 12:40:00,
2013-02-18 07:45:00,10.0,-1.5,29.97,NW,315,3.4,12.5,59,0.00,,,0.00,WUHU21623XXSP,2013-02-18 12:45:00,
2013-02-18 07:50:00,10.2,-1.3,29.97,SW,225,3.1,11.6,59,0.00,,,0.00,WUHU21623XXSP,2013-02-18 12:50:00,
2013-02-18 07:55:00,10.2,-1.3,29.97,WNW,292,3.1,12.8,59,0.00,,,0.00,WUHU21623XXSP,2013-02-18 12:55:00,
2013-02-18 08:00:00,10.2,-1.3,29.97,West,270,6.5,12.8,59,0.00,,,0.00,WUHU21623XXSP,2013-02-18 13:00:00,
2013-02-18 08:05:00,10.6,-1.0,29.99,NW,315,6.3,16.1,59,0.00,,,0.00,WUHU21623XXSP,2013-02-18 13:05:00,
2013-02-18 08:10:00,10.4,-1.5,29.99,West,270,3.1,16.1,58,0.00,,,0.00,WUHU21623XXSP,2013-02-18 13:10:00,
2013-02-18 08:15:00,10.6,-1.4,29.99,West,270,0.0,14.8,58,0.00,,,0.00,WUHU21623XXSP,2013-02-18 13:15:00,
2013-02-18 08:20:00,10.6,-1.4,30.00,WNW,292,6.0,12.3,58,0.00,,,0.00,WUHU21623XXSP,2013-02-18 13:20:00,
2013-02-18 08:25:00,10.6,-1.4,30.00,SSW,202,7.6,11.9,58,0.00,,,0.00,WUHU21623XXSP,2013-02-18 13:25:00,
2013-02-18 08:30:00,10.6,-1.7,30.00,SSE,157,5.1,11.4,57,0.00,,,0.00,WUHU21623XXSP,2013-02-18 13:30:00,
2013-02-18 08:35:00,10.8,-1.6,30.00,SSW,202,3.4,12.3,57,0.00,,,0.00,WUHU21623XXSP,2013-02-18 13:35:00,
2013-02-18 08:40:00,11.1,-1.2,29.99,WNW,292,9.4,12.3,57,0.00,,,0.00,WUHU21623XXSP,2013-02-18 13:40:00,
2013-02-18 08:46:00,11.7,-0.8,29.99,SSW,202,6.3,12.3,57,0.00,,,0.00,WUHU21623XXSP,2013-02-18 13:46:00,
2013-02-18 08:52:00,12.0,-0.8,29.99,SSW,202,6.5,16.3,56,0.00,,,0.00,WUHU21623XXSP,2013-02-18 13:52:00,
2013-02-18 08:57:00,12.7,-0.5,29.99,SSW,202,6.5,16.3,55,0.00,,,0.00,WUHU21623XXSP,2013-02-18 13:57:00,
2013-02-18 09:02:00,13.1,-0.6,30.00,NE,45,3.1,15.9,54,0.00,,,0.00,WUHU21623XXSP,2013-02-18 14:02:00,
2013-02-18 09:07:00,13.1,-1.0,30.00,SSW,202,11.9,15.9,53,0.00,,,0.00,WUHU21623XXSP,2013-02-18 14:07:00,
2013-02-18 09:12:00,13.3,-0.8,30.00,WNW,292,0.0,13.4,53,0.00,,,0.00,WUHU21623XXSP,2013-02-18 14:12:00,
2013-02-18 09:17:00,13.8,-0.7,30.00,North,0,10.7,13.4,52,0.00,,,0.00,WUHU21623XXSP,2013-02-18 14:17:00,
2013-02-18 09:22:00,14.0,-0.9,30.00,West,270,4.5,22.8,51,0.00,,,0.00,WUHU21623XXSP,2013-02-18 14:22:00,
2013-02-18 09:27:00,14.2,-1.1,30.00,WNW,292,0.0,22.8,50,0.00,,,0.00,WUHU21623XXSP,2013-02-18 14:27:00,
2013-02-18 09:32:00,14.7,-0.6,30.00,West,270,7.4,12.5,50,0.00,,,0.00,WUHU21623XXSP,2013-02-18 14:32:00,
2013-02-18 09:37:00,15.1,-0.7,29.99,West,270,4.3,12.5,49,0.00,,,0.00,WUHU21623XXSP,2013-02-18 14:37:00,
2013-02-18 09:42:00,15.3,-1.5,29.99,West,270,0.0,16.8,47,0.00,,,0.00,WUHU21623XXSP,2013-02-18 14:42:00,
2013-02-18 09:47:00,16.0,-1.3,29.99,SW,225,6.3,16.8,46,0.00,,,0.00,WUHU21623XXSP,2013-02-18 14:47:00,
2013-02-18 09:52:00,16.3,-1.4,30.00,WSW,247,4.9,13.4,45,0.00,,,0.00,WUHU21623XXSP,2013-02-18 14:52:00,
2013-02-18 09:57:00,16.7,-2.0,30.00,West,270,4.0,13.4,43,0.00,,,0.00,WUHU21623XXSP,2013-02-18 14:57:00,
2013-02-18 10:02:00,17.2,-1.5,30.01,NNW,337,0.0,11.6,43,0.00,,,0.00,WUHU21623XXSP,2013-02-18 15:02:00,
2013-02-18 10:07:00,17.4,-1.3,30.00,NW,315,0.0,11.0,43,0.00,,,0.00,WUHU21623XXSP,2013-02-18 15:07:00,
2013-02-18 10:12:00,17.8,-1.5,30.02,WNW,292,0.0,11.0,42,0.00,,,0.00,WUHU21623XXSP,2013-02-18 15:12:00,
2013-02-18 10:17:00,17.8,-1.9,30.02,WNW,292,2.9,8.7,41,0.00,,,0.00,WUHU21623XXSP,2013-02-18 15:17:00,
2013-02-18 10:22:00,18.0,-1.8,30.02,NW,315,13.2,13.2,41,0.00,,,0.00,WUHU21623XXSP,2013-02-18 15:22:00,
2013-02-18 10:27:00,18.1,-1.6,30.02,SW,225,4.5,14.3,41,0.00,,,0.00,WUHU21623XXSP,2013-02-18 15:27:00,
2013-02-18 10:32:00,18.3,-1.4,30.02,WNW,292,0.0,14.3,41,0.00,,,0.00,WUHU21623XXSP,2013-02-18 15:32:00,
2013-02-18 10:38:00,18.3,-1.4,30.01,WNW,292,6.7,16.8,41,0.00,,,0.00,WUHU21623XXSP,2013-02-18 15:38:00,
2013-02-18 10:43:00,18.3,-1.9,30.01,WSW,247,8.3,18.3,40,0.00,,,0.00,WUHU21623XXSP,2013-02-18 15:43:00,
2013-02-18 10:48:00,18.5,-2.4,30.01,WNW,292,5.1,18.3,39,0.00,,,0.00,WUHU21623XXSP,2013-02-18 15:48:00,
2013-02-18 10:53:00,18.9,-2.0,30.01,North,0,5.8,12.5,39,0.00,,,0.00,WUHU21623XXSP,2013-02-18 15:53:00,
2013-02-18 10:58:00,19.0,-1.9,30.02,West,270,2.5,14.1,39,0.00,,,0.00,WUHU21623XXSP,2013-02-18 15:58:00,
2013-02-18 11:03:00,19.6,-1.4,30.02,West,270,6.0,17.7,39,0.00,,,0.00,WUHU21623XXSP,2013-02-18 16:03:00,
2013-02-18 11:08:00,19.8,-1.8,30.02,North,0,3.8,17.7,38,0.00,,,0.00,WUHU21623XXSP,2013-02-18 16:08:00,
2013-02-18 11:13:00,19.9,-1.7,30.02,WSW,247,1.3,15.2,38,0.00,,,0.00,WUHU21623XXSP,2013-02-18 16:13:00,
2013-02-18 11:18:00,20.3,-0.7,30.02,West,270,0.0,15.2,39,0.00,,,0.00,WUHU21623XXSP,2013-02-18 16:18:00,
2013-02-18 11:23:00,20.3,-1.4,30.03,West,270,3.8,11.2,38,0.00,,,0.00,WUHU21623XXSP,2013-02-18 16:23:00,
2013-02-18 11:28:00,20.5,-0.6,30.04,West,270,1.8,14.3,39,0.00,,,0.00,WUHU21623XXSP,2013-02-18 16:28:00,
2013-02-18 11:33:00,21.0,0.5,30.03,West,270,0.0,14.3,40,0.00,,,0.00,WUHU21623XXSP,2013-02-18 16:33:00,
2013-02-18 11:38:00,20.8,-0.9,30.02,SSW,202,4.5,13.2,38,0.00,,,0.00,WUHU21623XXSP,2013-02-18 16:38:00,
2013-02-18 11:43:00,21.0,0.5,30.02,NNW,337,6.7,15.9,40,0.00,,,0.00,WUHU21623XXSP,2013-02-18 16:43:00,
2013-02-18 11:48:00,21.6,0.4,30.03,NW,315,8.5,15.9,39,0.00,,,0.00,WUHU21623XXSP,2013-02-18 16:48:00,
2013-02-18 11:53:00,21.4,-1.0,30.03,West,270,5.6,14.1,37,0.00,,,0.00,WUHU21623XXSP,2013-02-18 16:53:00,
2013-02-18 11:58:00,21.9,0.1,30.02,NW,315,2.0,17.0,38,0.00,,,0.00,WUHU21623XXSP,2013-02-18 16:58:00,
2013-02-18 12:03:00,22.1,-0.3,30.02,SSW,202,7.2,17.0,37,0.00,,,0.00,WUHU21623XXSP,2013-02-18 17:03:00,
2013-02-18 12:08:00,22.3,-0.2,30.03,West,270,2.0,15.9,37,0.00,,,0.00,WUHU21623XXSP,2013-02-18 17:08:00,
2013-02-18 12:13:00,22.5,-0.6,30.03,NW,315,14.8,14.8,36,0.00,,,0.00,WUHU21623XXSP,2013-02-18 17:13:00,
2013-02-18 12:18:00,22.8,0.3,30.04,West,270,12.8,14.8,37,0.00,,,0.00,WUHU21623XXSP,2013-02-18 17:18:00,
2013-02-18 12:23:00,22.8,-0.3,30.04,West,270,5.8,13.2,36,0.00,,,0.00,WUHU21623XXSP,2013-02-18 17:23:00,
2013-02-18 12:28:00,22.8,0.3,30.04,West,270,2.2,12.3,37,0.00,,,0.00,WUHU21623XXSP,2013-02-18 17:28:00,
2013-02-18 12:33:00,23.2,0.6,30.03,West,270,0.0,12.3,37,0.00,,,0.00,WUHU21623XXSP,2013-02-18 17:33:00,
2013-02-18 12:38:00,23.5,0.3,30.03,WNW,292,1.1,16.8,36,0.00,,,0.00,WUHU21623XXSP,2013-02-18 17:38:00,
2013-02-18 12:44:00,23.2,0.0,30.02,West,270,8.7,16.8,36,0.00,,,0.00,WUHU21623XXSP,2013-02-18 17:44:00,
2013-02-18 12:49:00,23.4,0.2,30.02,West,270,2.2,15.9,36,0.00,,,0.00,WUHU21623XXSP,2013-02-18 17:49:00,
2013-02-18 12:54:00,23.5,0.3,30.03,WNW,292,11.0,14.1,36,0.00,,,0.00,WUHU21623XXSP,2013-02-18 17:54:00,
2013-02-18 12:59:00,23.4,0.2,30.02,SW,225,0.0,13.2,36,0.00,,,0.00,WUHU21623XXSP,2013-02-18 17:59:00,
2013-02-18 13:04:00,23.5,0.9,30.03,WNW,292,11.0,13.2,37,0.00,,,0.00,WUHU21623XXSP,2013-02-18 18:04:00,
2013-02-18 13:09:00,23.7,0.5,30.03,West,270,4.0,19.7,36,0.00,,,0.00,WUHU21623XXSP,2013-02-18 18:09:00,
2013-02-18 13:14:00,23.5,0.3,30.03,WSW,247,2.2,19.7,36,0.00,,,0.00,WUHU21623XXSP,2013-02-18 18:14:00,
2013-02-18 13:19:00,23.7,0.5,30.03,NW,315,5.8,13.9,36,0.00,,,0.00,WUHU21623XXSP,2013-02-18 18:19:00,
2013-02-18 13:24:00,23.7,0.5,30.03,NW,315,2.2,13.9,36,0.00,,,0.00,WUHU21623XXSP,2013-02-18 18:24:00,
2013-02-18 13:29:00,23.9,1.3,30.03,NW,315,6.5,13.4,37,0.00,,,0.00,WUHU21623XXSP,2013-02-18 18:29:00,
2013-02-18 13:34:00,23.7,-0.1,30.04,SSW,202,11.2,23.9,35,0.00,,,0.00,WUHU21623XXSP,2013-02-18 18:34:00,
2013-02-18 13:39:00,24.1,0.8,30.04,SSW,202,7.2,23.9,36,0.00,,,0.00,WUHU21623XXSP,2013-02-18 18:39:00,
2013-02-18 13:44:00,23.7,-0.1,30.04,WSW,247,0.0,15.2,35,0.00,,,0.00,WUHU21623XXSP,2013-02-18 18:44:00,
2013-02-18 13:49:00,23.9,0.1,30.04,WSW,247,6.5,15.2,35,0.00,,,0.00,WUHU21623XXSP,2013-02-18 18:49:00,
2013-02-18 13:54:00,24.4,1.1,30.04,WSW,247,9.2,19.2,36,0.00,,,0.00,WUHU21623XXSP,2013-02-18 18:54:00,
2013-02-18 13:59:00,24.1,0.2,30.03,West,270,0.0,19.2,35,0.00,,,0.00,WUHU21623XXSP,2013-02-18 18:59:00,
2013-02-18 14:04:00,24.1,-0.4,30.04,West,270,7.4,13.6,34,0.00,,,0.00,WUHU21623XXSP,2013-02-18 19:04:00,
2013-02-18 14:09:00,24.1,0.2,30.04,WNW,292,11.4,13.6,35,0.00,,,0.00,WUHU21623XXSP,2013-02-18 19:09:00,
2013-02-18 14:14:00,24.4,0.5,30.04,WNW,292,3.8,12.8,35,0.00,,,0.00,WUHU21623XXSP,2013-02-18 19:14:00,
2013-02-18 14:19:00,24.6,0.7,30.04,NW,315,2.2,12.1,35,0.00,,,0.00,WUHU21623XXSP,2013-02-18 19:19:00,
2013-02-18 14:24:00,24.6,0.1,30.04,West,270,0.0,19.9,34,0.00,,,0.00,WUHU21623XXSP,2013-02-18 19:24:00,
2013-02-18 14:29:00,24.6,0.1,30.04,West,270,1.6,19.9,34,0.00,,,0.00,WUHU21623XXSP,2013-02-18 19:29:00,
2013-02-18 14:34:00,24.4,0.5,30.04,NW,315,10.3,14.8,35,0.00,,,0.00,WUHU21623XXSP,2013-02-18 19:34:00,
2013-02-18 14:39:00,24.4,0.5,30.04,SE,135,4.7,14.8,35,0.00,,,0.00,WUHU21623XXSP,2013-02-18 19:39:00,
2013-02-18 14:44:00,24.4,-0.1,30.04,West,270,10.1,14.1,34,0.00,,,0.00,WUHU21623XXSP,2013-02-18 19:44:00,
2013-02-18 14:49:00,24.1,-0.4,30.04,NNW,337,7.2,21.5,34,0.00,,,0.00,WUHU21623XXSP,2013-02-18 19:49:00,
2013-02-18 14:54:00,24.1,0.2,30.04,WNW,292,4.3,21.5,35,0.00,,,0.00,WUHU21623XXSP,2013-02-18 19:54:00,
2013-02-18 14:59:00,24.3,0.4,30.04,SW,225,5.1,8.7,35,0.00,,,0.00,WUHU21623XXSP,2013-02-18 19:59:00,
2013-02-18 15:04:00,24.1,-0.4,30.05,WSW,247,0.0,19.9,34,0.00,,,0.00,WUHU21623XXSP,2013-02-18 20:04:00,
2013-02-18 15:09:00,24.1,-0.4,30.05,NW,315,0.0,19.9,34,0.00,,,0.00,WUHU21623XXSP,2013-02-18 20:09:00,
2013-02-18 15:14:00,23.9,-0.6,30.06,WSW,247,9.2,15.2,34,0.00,,,0.00,WUHU21623XXSP,2013-02-18 20:14:00,
2013-02-18 15:19:00,23.7,-0.7,30.07,WSW,247,3.4,15.2,34,0.00,,,0.00,WUHU21623XXSP,2013-02-18 20:19:00,
2013-02-18 15:24:00,24.3,-0.2,30.06,West,270,4.9,13.9,34,0.00,,,0.00,WUHU21623XXSP,2013-02-18 20:24:00,
2013-02-18 15:29:00,24.4,-0.7,30.07,WNW,292,1.6,21.5,33,0.00,,,0.00,WUHU21623XXSP,2013-02-18 20:29:00,
2013-02-18 15:34:00,25.0,-0.8,30.06,West,270,3.6,21.5,32,0.00,,,0.00,WUHU21623XXSP,2013-02-18 20:34:00,
2013-02-18 15:39:00,25.2,-0.7,30.07,WSW,247,8.3,16.6,32,0.00,,,0.00,WUHU21623XXSP,2013-02-18 20:39:00,
2013-02-18 15:44:00,25.3,-0.5,30.07,SSW,202,7.2,12.5,32,0.00,,,0.00,WUHU21623XXSP,2013-02-18 20:44:00,
2013-02-18 15:49:00,25.5,-0.4,30.07,West,270,0.0,11.2,32,0.00,,,0.00,WUHU21623XXSP,2013-02-18 20:49:00,
2013-02-18 15:54:00,24.8,-1.0,30.07,West,270,7.4,13.9,32,0.00,,,0.00,WUHU21623XXSP,2013-02-18 20:54:00,
2013-02-18 15:59:00,24.6,-1.1,30.07,WNW,292,7.4,13.9,32,0.00,,,0.00,WUHU21623XXSP,2013-02-18 20:59:00,
2013-02-18 16:04:00,24.4,-1.3,30.08,NNW,337,0.0,16.6,32,0.00,,,0.00,WUHU21623XXSP,2013-02-18 21:04:00,
2013-02-18 16:09:00,24.1,-1.6,30.08,West,270,0.0,16.6,32,0.00,,,0.00,WUHU21623XXSP,2013-02-18 21:09:00,
2013-02-18 16:14:00,23.9,-1.2,30.08,West,270,1.8,16.1,33,0.00,,,0.00,WUHU21623XXSP,2013-02-18 21:14:00,
2013-02-18 16:19:00,23.5,-1.5,30.08,West,270,0.0,16.1,33,0.00,,,0.00,WUHU21623XXSP,2013-02-18 21:19:00,
2013-02-18 16:25:00,23.7,-1.3,30.09,NNW,337,0.0,8.5,33,0.00,,,0.00,WUHU21623XXSP,2013-02-18 21:25:00,
2013-02-18 16:29:00,23.5,-0.9,30.09,SW,225,2.0,10.5,34,0.00,,,0.00,WUHU21623XXSP,2013-02-18 21:29:00,
2013-02-18 16:34:00,23.5,-0.9,30.09,NNW,337,0.0,10.5,34,0.00,,,0.00,WUHU21623XXSP,2013-02-18 21:34:00,
2013-02-18 16:39:00,23.4,-0.4,30.09,SW,225,4.7,6.5,35,0.00,,,0.00,WUHU21623XXSP,2013-02-18 21:39:00,
2013-02-18 16:44:00,23.4,-0.4,30.10,NE,45,0.0,4.7,35,0.00,,,0.00,WUHU21623XXSP,2013-02-18 21:44:00,
2013-02-18 16:49:00,23.2,-0.6,30.10,NW,315,0.0,9.6,35,0.00,,,0.00,WUHU21623XXSP,2013-02-18 21:49:00,
2013-02-18 16:54:00,23.2,-0.6,30.10,SSE,157,0.0,9.6,35,0.00,,,0.00,WUHU21623XXSP,2013-02-18 21:54:00,
2013-02-18 16:59:00,23.2,0.0,30.10,West,270,0.0,6.9,36,0.00,,,0.00,WUHU21623XXSP,2013-02-18 21:59:00,
2013-02-18 17:04:00,23.0,-0.1,30.09,East,90,0.0,5.4,36,0.00,,,0.00,WUHU21623XXSP,2013-02-18 22:04:00,
2013-02-18 17:09:00,22.8,-0.9,30.10,WSW,247,0.0,11.9,35,0.00,,,0.00,WUHU21623XXSP,2013-02-18 22:09:00,
2013-02-18 17:14:00,22.8,-1.5,30.10,SSE,157,0.0,11.9,34,0.00,,,0.00,WUHU21623XXSP,2013-02-18 22:14:00,
2013-02-18 17:19:00,22.3,-0.2,30.10,ESE,112,0.0,6.7,37,0.00,,,0.00,WUHU21623XXSP,2013-02-18 22:19:00,
2013-02-18 17:24:00,22.1,-0.3,30.10,SSE,157,0.0,12.1,37,0.00,,,0.00,WUHU21623XXSP,2013-02-18 22:24:00,
2013-02-18 17:29:00,22.1,-1.0,30.10,NNE,22,0.0,12.1,36,0.00,,,0.00,WUHU21623XXSP,2013-02-18 22:29:00,
2013-02-18 17:34:00,22.1,-1.0,30.11,WNW,292,0.0,2.7,36,0.00,,,0.00,WUHU21623XXSP,2013-02-18 22:34:00,
2013-02-18 17:39:00,21.9,0.1,30.11,North,0,2.0,2.7,38,0.00,,,0.00,WUHU21623XXSP,2013-02-18 22:39:00,
2013-02-18 17:44:00,21.7,-0.1,30.11,SSE,157,2.2,6.9,38,0.00,,,0.00,WUHU21623XXSP,2013-02-18 22:44:00,
2013-02-18 17:49:00,21.7,-0.7,30.11,SSE,157,0.0,6.9,37,0.00,,,0.00,WUHU21623XXSP,2013-02-18 22:49:00,
2013-02-18 17:54:00,21.9,-0.5,30.11,NNW,337,0.0,6.9,37,0.00,,,0.00,WUHU21623XXSP,2013-02-18 22:54:00,
2013-02-18 17:59:00,21.7,-0.1,30.11,ESE,112,0.0,6.5,38,0.00,,,0.00,WUHU21623XXSP,2013-02-18 22:59:00,
2013-02-18 18:04:00,21.7,-0.7,30.11,NW,315,3.4,10.7,37,0.00,,,0.00,WUHU21623XXSP,2013-02-18 23:04:00,
2013-02-18 18:10:00,22.3,-1.4,30.11,NE,45,0.0,10.7,35,0.00,,,0.00,WUHU21623XXSP,2013-02-18 23:10:00,
2013-02-18 18:15:00,21.9,-0.5,30.11,NNW,337,3.1,9.2,37,0.00,,,0.00,WUHU21623XXSP,2013-02-18 23:15:00,
2013-02-18 18:20:00,22.1,-1.6,30.11,North,0,3.4,12.5,35,0.00,,,0.00,WUHU21623XXSP,2013-02-18 23:20:00,
2013-02-18 18:25:00,22.5,-0.6,30.11,NW,315,4.7,12.5,36,0.00,,,0.00,WUHU21623XXSP,2013-02-18 23:25:00,
2013-02-18 18:30:00,22.3,-0.8,30.12,South,180,0.0,10.1,36,0.00,,,0.00,WUHU21623XXSP,2013-02-18 23:30:00,
2013-02-18 18:35:00,22.3,-1.4,30.12,South,180,0.0,12.5,35,0.00,,,0.00,WUHU21623XXSP,2013-02-18 23:35:00,
2013-02-18 18:40:00,22.3,-1.4,30.13,SSW,202,0.0,12.5,35,0.00,,,0.00,WUHU21623XXSP,2013-02-18 23:40:00,
2013-02-18 18:45:00,21.9,-0.5,30.13,NNW,337,2.0,9.4,37,0.00,,,0.00,WUHU21623XXSP,2013-02-18 23:45:00,
2013-02-18 18:50:00,21.6,-0.8,30.12,West,270,0.0,10.1,37,0.00,,,0.00,WUHU21623XXSP,2013-02-18 23:50:00,
2013-02-18 18:55:00,21.4,-1.0,30.13,WNW,292,0.7,10.1,37,0.00,,,0.00,WUHU21623XXSP,2013-02-18 23:55:00,
2013-02-18 19:00:00,21.6,-1.4,30.13,SSE,157,1.1,8.5,36,0.00,,,0.00,WUHU21623XXSP,2013-02-19 00:00:00,
2013-02-18 19:05:00,21.7,-1.3,30.12,SSE,157,0.0,8.5,36,0.00,,,0.00,WUHU21623XXSP,2013-02-19 00:05:00,
2013-02-18 19:10:00,21.4,-1.0,30.12,NNW,337,2.5,8.9,37,0.00,,,0.00,WUHU21623XXSP,2013-02-19 00:10:00,
2013-02-18 19:15:00,21.6,-1.4,30.12,SSE,157,0.0,9.6,36,0.00,,,0.00,WUHU21623XXSP,2013-02-19 00:15:00,
2013-02-18 19:20:00,21.7,-0.7,30.12,SSE,157,0.0,9.6,37,0.00,,,0.00,WUHU21623XXSP,2013-02-19 00:20:00,
2013-02-18 19:25:00,21.4,-1.6,30.12,WSW,247,0.0,5.6,36,0.00,,,0.00,WUHU21623XXSP,2013-02-19 00:25:00,
2013-02-18 19:30:00,21.2,-1.8,30.12,WNW,292,0.0,5.6,36,0.00,,,0.00,WUHU21623XXSP,2013-02-19 00:30:00,
2013-02-18 19:35:00,21.6,-1.4,30.13,SW,225,0.0,12.8,36,0.00,,,0.00,WUHU21623XXSP,2013-02-19 00:35:00,
2013-02-18 19:40:00,21.4,-1.6,30.13,SW,225,2.2,12.8,36,0.00,,,0.00,WUHU21623XXSP,2013-02-19 00:40:00,
2013-02-18 19:45:00,21.7,-1.9,30.13,SE,135,0.0,7.4,35,0.00,,,0.00,WUHU21623XXSP,2013-02-19 00:45:00,
2013-02-18 19:50:00,21.7,-1.9,30.13,NNE,22,0.0,7.4,35,0.00,,,0.00,WUHU21623XXSP,2013-02-19 00:50:00,
2013-02-18 19:55:00,21.7,-1.9,30.13,South,180,5.1,5.1,35,0.00,,,0.00,WUHU21623XXSP,2013-02-19 00:55:00,
2013-02-18 20:00:00,21.9,-1.7,30.13,North,0,0.0,5.6,35,0.00,,,0.00,WUHU21623XXSP,2013-02-19 01:00:00,
2013-02-18 20:05:00,21.0,-1.3,30.13,NNW,337,0.0,5.6,37,0.00,,,0.00,WUHU21623XXSP,2013-02-19 01:05:00,
2013-02-18 20:10:00,21.4,0.2,30.13,NNW,337,0.0,4.7,39,0.00,,,0.00,WUHU21623XXSP,2013-02-19 01:10:00,
2013-02-18 20:15:00,21.0,-0.7,30.14,SE,135,1.3,3.4,38,0.00,,,0.00,WUHU21623XXSP,2013-02-19 01:15:00,
2013-02-18 20:20:00,21.0,-1.3,30.14,North,0,0.0,6.0,37,0.00,,,0.00,WUHU21623XXSP,2013-02-19 01:20:00,
2013-02-18 20:25:00,20.8,-0.9,30.14,North,0,0.0,6.0,38,0.00,,,0.00,WUHU21623XXSP,2013-02-19 01:25:00,
2013-02-18 20:30:00,19.9,-1.7,30.14,North,0,0.0,0.0,38,0.00,,,0.00,WUHU21623XXSP,2013-02-19 01:30:00,
2013-02-18 20:35:00,20.8,-2.1,30.14,NE,45,1.6,6.5,36,0.00,,,0.00,WUHU21623XXSP,2013-02-19 01:35:00,
2013-02-18 20:40:00,21.0,-1.9,30.14,South,180,0.0,7.4,36,0.00,,,0.00,WUHU21623XXSP,2013-02-19 01:40:00,
2013-02-18 20:45:00,21.4,-2.2,30.14,East,90,0.0,7.4,35,0.00,,,0.00,WUHU21623XXSP,2013-02-19 01:45:00,
2013-02-18 20:50:00,21.4,-1.6,30.15,NW,315,0.0,7.8,36,0.00,,,0.00,WUHU21623XXSP,2013-02-19 01:50:00,
2013-02-18 20:55:00,21.4,-2.2,30.15,WSW,247,0.0,7.8,35,0.00,,,0.00,WUHU21623XXSP,2013-02-19 01:55:00,
2013-02-18 21:00:00,21.4,-2.2,30.15,SSW,202,0.0,10.5,35,0.00,,,0.00,WUHU21623XXSP,2013-02-19 02:00:00,
2013-02-18 21:05:00,21.6,-2.1,30.15,South,180,0.0,10.5,35,0.00,,,0.00,WUHU21623XXSP,2013-02-19 02:05:00,
2013-02-18 21:10:00,21.4,-2.2,30.15,NNW,337,0.0,3.4,35,0.00,,,0.00,WUHU21623XXSP,2013-02-19 02:10:00,
2013-02-18 21:16:00,21.6,-2.1,30.15,West,270,0.0,7.2,35,0.00,,,0.00,WUHU21623XXSP,2013-02-19 02:16:00,
2013-02-18 21:21:00,21.4,-2.2,30.15,ESE,112,0.0,7.2,35,0.00,,,0.00,WUHU21623XXSP,2013-02-19 02:21:00,
2013-02-18 21:26:00,21.4,-2.2,30.15,SE,135,0.0,3.8,35,0.00,,,0.00,WUHU21623XXSP,2013-02-19 02:26:00,
2013-02-18 21:31:00,21.6,-2.7,30.15,SW,225,0.0,8.7,34,0.00,,,0.00,WUHU21623XXSP,2013-02-19 02:31:00,
2013-02-18 21:36:00,21.7,-2.5,30.15,WSW,247,0.0,8.7,34,0.00,,,0.00,WUHU21623XXSP,2013-02-19 02:36:00,
2013-02-18 21:41:00,21.6,-2.7,30.15,West,270,0.0,5.1,34,0.00,,,0.00,WUHU21623XXSP,2013-02-19 02:41:00,
2013-02-18 21:46:00,21.4,-2.2,30.15,NW,315,0.0,2.9,35,0.00,,,0.00,WUHU21623XXSP,2013-02-19 02:46:00,
2013-02-18 21:51:00,20.8,-2.7,30.15,NW,315,0.0,2.9,35,0.00,,,0.00,WUHU21623XXSP,2013-02-19 02:51:00,
2013-02-18 21:56:00,20.5,-3.0,30.15,NW,315,0.0,3.4,35,0.00,,,0.00,WUHU21623XXSP,2013-02-19 02:56:00,
2013-02-18 22:01:00,20.1,-2.7,30.15,NW,315,0.0,3.4,36,0.00,,,0.00,WUHU21623XXSP,2013-02-19 03:01:00,
2013-02-18 22:06:00,19.9,-2.9,30.15,SW,225,0.0,0.0,36,0.00,,,0.00,WUHU21623XXSP,2013-02-19 03:06:00,
2013-02-18 22:12:00,19.6,-2.6,30.15,SW,225,0.0,0.0,37,0.00,,,0.00,WUHU21623XXSP,2013-02-19 03:12:00,
2013-02-18 22:17:00,19.6,-3.2,30.15,NW,315,0.0,4.3,36,0.00,,,0.00,WUHU21623XXSP,2013-02-19 03:17:00,
2013-02-18 22:22:00,19.6,-2.6,30.15,WNW,292,0.0,8.1,37,0.00,,,0.00,WUHU21623XXSP,2013-02-19 03:22:00,
2013-02-18 22:27:00,19.9,-2.9,30.15,North,0,0.0,8.1,36,0.00,,,0.00,WUHU21623XXSP,2013-02-19 03:27:00,
2013-02-18 22:32:00,20.3,-2.6,30.15,NW,315,2.2,2.2,36,0.00,,,0.00,WUHU21623XXSP,2013-02-19 03:32:00,
2013-02-18 22:37:00,20.3,-2.6,30.16,East,90,0.0,2.2,36,0.00,,,0.00,WUHU21623XXSP,2013-02-19 03:37:00,
2013-02-18 22:42:00,20.5,-0.6,30.16,West,270,0.0,2.2,39,0.00,,,0.00,WUHU21623XXSP,2013-02-19 03:42:00,
2013-02-18 22:47:00,20.8,-2.1,30.16,South,180,0.0,7.8,36,0.00,,,0.00,WUHU21623XXSP,2013-02-19 03:47:00,
2013-02-18 22:52:00,20.8,-2.1,30.16,NNW,337,0.0,7.8,36,0.00,,,0.00,WUHU21623XXSP,2013-02-19 03:52:00,
2013-02-18 22:57:00,20.8,-2.1,30.15,South,180,0.0,4.5,36,0.00,,,0.00,WUHU21623XXSP,2013-02-19 03:57:00,
2013-02-18 23:02:00,20.8,-2.7,30.15,SE,135,0.0,4.5,35,0.00,,,0.00,WUHU21623XXSP,2013-02-19 04:02:00,
2013-02-18 23:07:00,20.8,-2.1,30.16,SSE,157,0.0,3.8,36,0.00,,,0.00,WUHU21623XXSP,2013-02-19 04:07:00,
2013-02-18 23:12:00,20.8,-2.7,30.16,South,180,0.0,5.8,35,0.00,,,0.00,WUHU21623XXSP,2013-02-19 04:12:00,
2013-02-18 23:17:00,20.8,-2.1,30.16,SSE,157,0.0,5.8,36,0.00,,,0.00,WUHU21623XXSP,2013-02-19 04:17:00,
2013-02-18 23:22:00,20.8,-2.7,30.16,SSE,157,2.2,2.7,35,0.00,,,0.00,WUHU21623XXSP,2013-02-19 04:22:00,
2013-02-18 23:27:00,21.0,-0.7,30.16,South,180,2.7,3.1,38,0.00,,,0.00,WUHU21623XXSP,2013-02-19 04:27:00,
2013-02-18 23:32:00,20.8,-1.5,30.15,SSE,157,0.0,3.4,37,0.00,,,0.00,WUHU21623XXSP,2013-02-19 04:32:00,
2013-02-18 23:37:00,20.8,-2.1,30.16,SSE,157,0.0,3.4,36,0.00,,,0.00,WUHU21623XXSP,2013-02-19 04:37:00,
2013-02-18 23:43:00,20.3,-2.6,30.16,SSE,157,0.0,0.0,36,0.00,,,0.00,WUHU21623XXSP,2013-02-19 04:43:00,
2013-02-18 23:48:00,19.8,-3.1,30.16,SSE,157,0.0,0.0,36,0.00,,,0.00,WUHU21623XXSP,2013-02-19 04:48:00,
2013-02-18 23:53:00,19.6,-2.6,30.16,SSE,157,0.0,0.0,37,0.00,,,0.00,WUHU21623XXSP,2013-02-19 04:53:00,
2013-02-18 23:58:00,19.4,-2.8,30.17,SSE,157,0.0,0.0,37,0.00,,,0.00,WUHU21623XXSP,2013-02-19 04:58:00,